Time,TemperatureF,DewpointF,PressureIn,WindDirection,WindDirectionDegrees,WindSpeedMPH,WindSpeedGustMPH,Humidity,HourlyPrecipIn,Conditions,Clouds,dailyrainin,SoftwareType,DateUTC
2013-01-05 00:04:00,36.3,35.8,30.14,North,0,0.0,-999.0,98,-99.99,,,0.00,Acu-Link.com,2013-01-05 08:04:00,
2013-01-05 00:20:00,35.8,35.3,30.14,North,0,0.0,-999.0,98,-99.99,,,0.00,Acu-Link.com,2013-01-05 08:20:00,
2013-01-05 00:35:00,35.6,35.1,30.15,North,0,0.0,-999.0,98,-99.99,,,0.00,Acu-Link.com,2013-01-05 08:35:00,
2013-01-05 00:50:00,35.2,34.7,30.14,North,0,0.0,-999.0,98,-99.99,,,0.00,Acu-Link.com,2013-01-05 08:50:00,
2013-01-05 01:07:00,35.1,34.6,30.14,North,0,0.0,-999.0,98,-99.99,,,0.00,Acu-Link.com,2013-01-05 09:07:00,
2013-01-05 01:22:00,35.4,34.9,30.14,North,0,0.0,-999.0,98,-99.99,,,0.00,Acu-Link.com,2013-01-05 09:22:00,
2013-01-05 01:38:00,35.2,34.7,30.14,SSE,157,0.0,-999.0,98,-99.99,,,0.00,Acu-Link.com,2013-01-05 09:38:00,
2013-01-05 01:53:00,35.1,34.6,30.15,South,180,0.0,-999.0,98,-99.99,,,0.00,Acu-Link.com,2013-01-05 09:53:00,
2013-01-05 02:08:00,34.7,34.2,30.17,NNE,22,0.0,-999.0,98,-99.99,,,0.00,Acu-Link.com,2013-01-05 10:08:00,
2013-01-05 02:23:00,34.3,33.8,30.15,NW,315,0.0,-999.0,98,-99.99,,,0.00,Acu-Link.com,2013-01-05 10:23:00,
2013-01-05 02:38:00,34.2,33.7,30.15,West,270,0.0,-999.0,98,-99.99,,,0.00,Acu-Link.com,2013-01-05 10:38:00,
2013-01-05 02:53:00,34.2,33.7,30.15,NW,315,0.0,-999.0,98,-99.99,,,0.00,Acu-Link.com,2013-01-05 10:53:00,
2013-01-05 03:09:00,34.2,33.7,30.15,ESE,112,0.0,-999.0,98,-99.99,,,0.00,Acu-Link.com,2013-01-05 11:09:00,
2013-01-05 03:24:00,34.0,33.5,30.15,SE,135,0.0,-999.0,98,-99.99,,,0.00,Acu-Link.com,2013-01-05 11:24:00,
2013-01-05 03:39:00,34.0,33.5,30.16,WNW,292,0.0,-999.0,98,-99.99,,,0.00,Acu-Link.com,2013-01-05 11:39:00,
2013-01-05 03:54:00,33.6,33.1,30.16,NNW,337,0.0,-999.0,98,-99.99,,,0.00,Acu-Link.com,2013-01-05 11:54:00,
2013-01-05 04:09:00,33.3,32.8,30.18,ENE,67,0.0,-999.0,98,-99.99,,,0.00,Acu-Link.com,2013-01-05 12:09:00,
2013-01-05 04:24:00,33.1,32.6,30.18,SE,135,0.0,-999.0,98,-99.99,,,0.00,Acu-Link.com,2013-01-05 12:24:00,
2013-01-05 04:39:00,32.9,32.4,30.17,South,180,0.0,-999.0,98,-99.99,,,0.00,Acu-Link.com,2013-01-05 12:39:00,
2013-01-05 04:54:00,32.9,32.4,30.17,SSW,202,0.0,-999.0,98,-99.99,,,0.00,Acu-Link.com,2013-01-05 12:54:00,
2013-01-05 05:09:00,32.9,32.4,30.17,SE,135,0.0,-999.0,98,-99.99,,,0.00,Acu-Link.com,2013-01-05 13:09:00,
2013-01-05 05:25:00,32.9,32.4,30.17,SSE,157,0.0,-999.0,98,-99.99,,,0.00,Acu-Link.com,2013-01-05 13:25:00,
2013-01-05 05:40:00,32.7,32.2,30.17,SSW,202,0.0,-999.0,98,-99.99,,,0.00,Acu-Link.com,2013-01-05 13:40:00,
2013-01-05 05:55:00,33.1,32.6,30.17,SE,135,0.0,-999.0,98,-99.99,,,0.00,Acu-Link.com,2013-01-05 13:55:00,
2013-01-05 06:10:00,32.7,32.2,30.17,ESE,112,0.0,-999.0,98,-99.99,,,0.00,Acu-Link.com,2013-01-05 14:10:00,
2013-01-05 06:25:00,32.5,32.0,30.19,NNE,22,0.0,-999.0,98,-99.99,,,0.00,Acu-Link.com,2013-01-05 14:25:00,
2013-01-05 06:40:00,32.5,32.0,30.19,NNE,22,0.0,-999.0,98,-99.99,,,0.00,Acu-Link.com,2013-01-05 14:40:00,
2013-01-05 06:55:00,32.5,32.0,30.19,NNE,22,0.0,-999.0,98,-99.99,,,0.00,Acu-Link.com,2013-01-05 14:55:00,
2013-01-05 07:10:00,32.7,32.2,30.19,North,0,0.0,-999.0,98,-99.99,,,0.00,Acu-Link.com,2013-01-05 15:10:00,
2013-01-05 07:25:00,32.7,32.2,30.19,North,0,0.0,-999.0,98,-99.99,,,0.00,Acu-Link.com,2013-01-05 15:25:00,
2013-01-05 07:41:00,32.9,32.4,30.19,NNE,22,0.0,-999.0,98,-99.99,,,0.00,Acu-Link.com,2013-01-05 15:41:00,
2013-01-05 07:56:00,33.4,32.9,30.19,SSE,157,0.0,-999.0,98,-99.99,,,0.00,Acu-Link.com,2013-01-05 15:56:00,
2013-01-05 08:11:00,34.2,33.7,30.19,South,180,0.0,-999.0,98,-99.99,,,0.00,Acu-Link.com,2013-01-05 16:11:00,
2013-01-05 08:26:00,35.2,34.7,30.19,WNW,292,0.0,-999.0,98,-99.99,,,0.00,Acu-Link.com,2013-01-05 16:26:00,
2013-01-05 08:41:00,36.3,35.8,30.19,NE,45,0.0,-999.0,98,-99.99,,,0.00,Acu-Link.com,2013-01-05 16:41:00,
2013-01-05 08:56:00,37.4,36.9,30.19,SSW,202,0.0,-999.0,98,-99.99,,,0.00,Acu-Link.com,2013-01-05 16:56:00,
2013-01-05 09:11:00,37.9,37.4,30.18,East,90,0.0,-999.0,98,-99.99,,,0.00,Acu-Link.com,2013-01-05 17:11:00,
2013-01-05 09:26:00,39.2,38.7,30.18,ENE,67,0.0,-999.0,98,-99.99,,,0.00,Acu-Link.com,2013-01-05 17:26:00,
2013-01-05 09:41:00,40.5,40.0,30.19,SW,225,0.0,-999.0,98,-99.99,,,0.00,Acu-Link.com,2013-01-05 17:41:00,
2013-01-05 09:56:00,41.9,41.4,30.18,ESE,112,0.0,-999.0,98,-99.99,,,0.00,Acu-Link.com,2013-01-05 17:56:00,
2013-01-05 10:12:00,43.7,43.2,30.18,ENE,67,0.0,-999.0,98,-99.99,,,0.00,Acu-Link.com,2013-01-05 18:12:00,
2013-01-05 10:27:00,45.3,44.8,30.16,East,90,0.0,-999.0,98,-99.99,,,0.00,Acu-Link.com,2013-01-05 18:27:00,
2013-01-05 10:42:00,46.9,46.4,30.17,NW,315,0.0,-999.0,98,-99.99,,,0.00,Acu-Link.com,2013-01-05 18:42:00,
2013-01-05 10:57:00,50.5,47.7,30.15,NW,315,0.0,-999.0,90,-99.99,,,0.00,Acu-Link.com,2013-01-05 18:57:00,
2013-01-05 11:12:00,51.4,47.7,30.13,ESE,112,0.0,-999.0,87,-99.99,,,0.00,Acu-Link.com,2013-01-05 19:12:00,
2013-01-05 11:27:00,51.4,48.0,30.10,ESE,112,2.2,-999.0,88,-99.99,,,0.00,Acu-Link.com,2013-01-05 19:27:00,
2013-01-05 11:42:00,51.8,47.7,30.08,WSW,247,3.2,-999.0,86,-99.99,,,0.00,Acu-Link.com,2013-01-05 19:42:00,
2013-01-05 11:57:00,51.4,47.7,30.09,NNW,337,2.7,-999.0,87,-99.99,,,0.00,Acu-Link.com,2013-01-05 19:57:00,
2013-01-05 12:12:00,52.0,48.3,30.10,WSW,247,1.7,-999.0,87,-99.99,,,0.00,Acu-Link.com,2013-01-05 20:12:00,
2013-01-05 12:28:00,51.6,47.9,30.10,NNW,337,1.7,-999.0,87,-99.99,,,0.00,Acu-Link.com,2013-01-05 20:28:00,
2013-01-05 12:43:00,51.6,47.6,30.09,NNW,337,2.2,-999.0,86,-99.99,,,0.00,Acu-Link.com,2013-01-05 20:43:00,
2013-01-05 12:58:00,51.8,47.7,30.08,ESE,112,0.0,-999.0,86,-99.99,,,0.00,Acu-Link.com,2013-01-05 20:58:00,
2013-01-05 13:13:00,52.7,47.7,30.08,East,90,1.7,-999.0,83,-99.99,,,0.00,Acu-Link.com,2013-01-05 21:13:00,
2013-01-05 13:28:00,53.1,48.1,30.08,SE,135,0.0,-999.0,83,-99.99,,,0.00,Acu-Link.com,2013-01-05 21:28:00,
2013-01-05 13:43:00,52.7,47.7,30.07,SSE,157,0.0,-999.0,83,-99.99,,,0.00,Acu-Link.com,2013-01-05 21:43:00,
2013-01-05 13:59:00,53.1,48.1,30.06,WNW,292,0.0,-999.0,83,-99.99,,,0.00,Acu-Link.com,2013-01-05 21:59:00,
2013-01-05 14:14:00,53.1,47.8,30.06,ESE,112,0.0,-999.0,82,-99.99,,,0.00,Acu-Link.com,2013-01-05 22:14:00,
2013-01-05 14:29:00,53.2,47.8,30.05,ENE,67,0.0,-999.0,82,-99.99,,,0.00,Acu-Link.com,2013-01-05 22:29:00,
2013-01-05 14:44:00,53.1,47.8,30.04,ESE,112,0.0,-999.0,82,-99.99,,,0.00,Acu-Link.com,2013-01-05 22:44:00,
2013-01-05 14:59:00,53.1,48.1,30.04,ESE,112,0.0,-999.0,83,-99.99,,,0.00,Acu-Link.com,2013-01-05 22:59:00,
2013-01-05 15:14:00,52.9,48.2,30.04,ESE,112,0.0,-999.0,84,-99.99,,,0.00,Acu-Link.com,2013-01-05 23:14:00,
2013-01-05 15:29:00,52.2,47.8,30.03,NE,45,0.0,-999.0,85,-99.99,,,0.00,Acu-Link.com,2013-01-05 23:29:00,
2013-01-05 15:44:00,51.4,47.7,30.03,SE,135,0.0,-999.0,87,-99.99,,,0.00,Acu-Link.com,2013-01-05 23:44:00,
2013-01-05 15:59:00,51.3,47.9,30.02,East,90,0.0,-999.0,88,-99.99,,,0.00,Acu-Link.com,2013-01-05 23:59:00,
2013-01-05 16:15:00,50.9,47.8,30.03,East,90,0.0,-999.0,89,-99.99,,,0.00,Acu-Link.com,2013-01-06 00:15:00,
2013-01-05 16:30:00,50.5,47.4,30.03,NE,45,0.0,-999.0,89,-99.99,,,0.00,Acu-Link.com,2013-01-06 00:30:00,
2013-01-05 16:45:00,50.2,48.0,30.02,ENE,67,0.0,-999.0,92,-99.99,,,0.00,Acu-Link.com,2013-01-06 00:45:00,
2013-01-05 17:00:00,49.5,47.8,30.01,SE,135,0.0,-999.0,94,-99.99,,,0.00,Acu-Link.com,2013-01-06 01:00:00,
2013-01-05 17:15:00,48.9,47.5,30.01,NE,45,0.0,-999.0,95,-99.99,,,0.00,Acu-Link.com,2013-01-06 01:15:00,
2013-01-05 17:30:00,48.4,47.3,30.02,ENE,67,0.0,-999.0,96,-99.99,,,0.00,Acu-Link.com,2013-01-06 01:30:00,
2013-01-05 17:45:00,47.8,47.3,30.03,North,0,0.0,-999.0,98,-99.99,,,0.00,Acu-Link.com,2013-01-06 01:45:00,
2013-01-05 18:00:00,47.3,46.8,30.02,NW,315,0.0,-999.0,98,-99.99,,,0.00,Acu-Link.com,2013-01-06 02:00:00,
2013-01-05 18:15:00,46.8,46.3,30.01,SE,135,0.0,-999.0,98,-99.99,,,0.02,Acu-Link.com,2013-01-06 02:15:00,
2013-01-05 18:31:00,46.6,46.1,30.01,NW,315,0.0,-999.0,98,-99.99,,,0.03,Acu-Link.com,2013-01-06 02:31:00,
2013-01-05 18:46:00,46.4,45.9,30.01,ENE,67,0.0,-999.0,98,-99.99,,,0.03,Acu-Link.com,2013-01-06 02:46:00,
2013-01-05 19:01:00,46.2,45.7,30.00,NNE,22,0.0,-999.0,98,-99.99,,,0.03,Acu-Link.com,2013-01-06 03:01:00,
2013-01-05 19:16:00,46.0,45.5,30.00,West,270,0.0,-999.0,98,-99.99,,,0.03,Acu-Link.com,2013-01-06 03:16:00,
2013-01-05 19:31:00,45.9,45.4,29.99,East,90,0.0,-999.0,98,-99.99,,,0.03,Acu-Link.com,2013-01-06 03:31:00,
2013-01-05 19:47:00,45.7,45.2,30.00,ESE,112,1.7,-999.0,98,-99.99,,,0.03,Acu-Link.com,2013-01-06 03:47:00,
2013-01-05 20:02:00,45.3,44.8,30.00,SE,135,1.7,-999.0,98,-99.99,,,0.06,Acu-Link.com,2013-01-06 04:02:00,
2013-01-05 20:24:00,44.8,44.3,29.99,ENE,67,1.7,-999.0,98,-99.99,,,0.07,Acu-Link.com,2013-01-06 04:24:00,
2013-01-05 20:57:00,44.6,44.1,30.01,East,90,2.2,-999.0,98,-99.99,,,0.07,Acu-Link.com,2013-01-06 04:57:00,
2013-01-05 21:55:00,44.2,43.7,30.00,NNW,337,0.0,-999.0,98,-99.99,,,0.07,Acu-Link.com,2013-01-06 05:55:00,
2013-01-05 22:15:00,44.2,43.7,29.99,ESE,112,1.7,-999.0,98,-99.99,,,0.08,Acu-Link.com,2013-01-06 06:15:00,
2013-01-05 22:30:00,44.2,43.7,30.00,NNE,22,0.0,-999.0,98,-99.99,,,0.08,Acu-Link.com,2013-01-06 06:30:00,
2013-01-05 22:47:00,44.2,43.7,30.00,East,90,1.1,-999.0,98,-99.99,,,0.09,Acu-Link.com,2013-01-06 06:47:00,
2013-01-05 23:02:00,44.1,43.6,30.00,NNW,337,0.0,-999.0,98,-99.99,,,0.10,Acu-Link.com,2013-01-06 07:02:00,
2013-01-05 23:18:00,44.1,43.6,30.00,South,180,0.0,-999.0,98,-99.99,,,0.11,Acu-Link.com,2013-01-06 07:18:00,
2013-01-05 23:33:00,43.7,43.2,29.99,East,90,2.7,-999.0,98,-99.99,,,0.13,Acu-Link.com,2013-01-06 07:33:00,
2013-01-05 23:48:00,44.6,44.1,29.99,ENE,67,0.0,-999.0,98,-99.99,,,0.15,Acu-Link.com,2013-01-06 07:48:00,